"Time","Temp","Dewpoint","Humidity","Pressure","Direction","Speed","Gust","Precip","PrecipRate"
"00:04:56","51.9","45.5","78.5","29.86","344","3.3","7.2","0.00","0.00"
"00:09:57","51.9","45.6","79","29.86","351","1.7","4.8","0.00","0.00"
"00:14:56","51.8","45.6","79.2","29.86","322","0.9","2.4","0.00","0.00"
"00:19:56","51.7","45.6","79.7","29.86","302","1.8","7.2","0.00","0.00"
"00:24:59","51.6","45.6","80","29.86","335","2.7","12","0.00","0.00"
"00:29:57","51.6","45.6","80","29.87","265","1.2","4.6","0.00","0.00"
"00:34:59","51.5","45.5","80","29.87","315","2.6","7.2","0.00","0.00"
"00:39:59","51.5","45.5","80","29.87","320","1.6","4.6","0.00","0.00"
"00:44:57","51.5","45.5","80","29.87","309","0.2","2.4","0.00","0.00"
"00:49:56","51.5","45.6","80.2","29.87","268","0.6","3.6","0.00","0.00"
"00:54:58","51.4","45.7","80.8","29.87","260","1.2","4.8","0.00","0.00"
"00:59:57","51.3","45.7","81","29.87","280","1.4","4.8","0.00","0.00"
"01:04:58","51.2","45.6","81","29.87","323","1.1","4.6","0.00","0.00"
"01:09:58","51.2","45.9","82","29.87","319","2.1","6","0.00","0.00"
"01:14:57","51.2","46.1","82.7","29.87","318","1.2","6","0.00","0.00"
"01:19:59","51","46","83","29.87","284","1","3.6","0.00","0.00"
"01:24:57","51","46.1","83.5","29.87","272","1.4","4.8","0.00","0.00"
"01:29:56","51","46.5","84.7","29.87","253","1.5","3.6","0.00","0.00"
"01:34:56","50.9","46.2","84","29.87","321","1.6","7.2","0.00","0.00"
"01:39:56","50.8","46.1","84","29.87","288","1","3.6","0.00","0.00"
"01:44:57","50.7","46","84","29.87","317","1.6","4.8","0.00","0.00"
"01:49:57","50.6","45.8","83.7","29.87","283","2","4.8","0.00","0.00"
"01:54:59","50.5","45.8","84","29.87","301","1.6","6","0.00","0.00"
"01:59:56","50.4","45.7","84","29.88","263","0.4","3.6","0.00","0.00"
"02:04:57","50.3","45.7","84.2","29.88","248","1.1","3.6","0.00","0.00"
"02:09:57","50.3","45.8","84.5","29.88","297","1.7","7.2","0.00","0.00"
"02:14:56","50.5","45.8","84","29.88","296","2.8","6.9","0.00","0.00"
"02:19:59","50.6","45.9","84","29.87","261","1.5","3.6","0.00","0.00"
"02:24:57","50.7","46","84","29.87","334","1.5","6","0.01","0.01"
"02:29:59","50.8","46.1","84","29.88","333","1.6","4.8","0.01","0.01"
"02:34:57","50.9","46.3","84.2","29.88","319","1.7","6","0.01","0.01"
"02:39:56","51","46.3","84","29.88","296","1.7","6","0.01","0.01"
"02:44:58","51","46.3","84","29.88","283","2","8.4","0.01","0.01"
"02:49:57","51.1","46.3","83.8","29.88","254","1.7","8.1","0.01","0.01"
"02:54:59","51.2","46.2","83","29.88","331","2.3","8.4","0.01","0.01"
"02:59:57","51.3","46.3","83","29.88","314","1.6","4.8","0.01","0.01"
"03:04:56","51.3","46.3","83","29.88","296","1.3","6","0.01","0.01"
"03:09:56","51.3","46.3","83","29.88","293","1.8","6","0.01","0.01"
"03:14:56","51.2","46.3","83.3","29.88","265","0.8","3.6","0.01","0.01"
"03:19:58","51","46.3","84","29.88","277","1.9","4.8","0.01","0.01"
"03:24:56","50.9","46.2","84","29.88","284","1.3","4.8","0.01","0.01"
"03:29:59","50.9","46.2","84","29.88","290","1.7","3.6","0.01","0.00"
"03:34:58","51","46.3","84","29.88","304","1.7","6","0.01","0.00"
"03:39:58","51.1","46.1","83","29.88","313","2.1","4.8","0.01","0.00"
"03:44:56","51.2","46.2","83","29.88","295","1.2","6","0.01","0.00"
"03:49:59","51.4","46.4","83","29.88","313","1.9","5.8","0.01","0.00"
"03:54:57","51.5","46.5","83","29.88","325","2","4.8","0.01","0.00"
"03:59:56","51.5","46.5","83","29.88","3","1.8","4.8","0.01","0.00"
"04:04:57","51.6","46.6","83","29.88","316","1.8","7.2","0.01","0.00"
"04:09:56","51.7","46.7","83","29.88","263","1.5","4.8","0.01","0.00"
"04:14:57","51.7","46.7","83","29.88","293","1.5","6","0.01","0.00"
"04:19:56","51.7","46.7","83","29.88","321","1.9","6","0.01","0.00"
"04:24:58","51.8","46.6","82.4","29.88","333","2.3","6","0.01","0.00"
"04:29:58","51.8","46.5","82","29.88","309","2","6","0.01","0.00"
"04:34:56","51.8","46.5","82","29.88","333","1.5","4.6","0.01","0.00"
"04:39:58","51.7","46.5","82.2","29.88","321","1.8","7.2","0.01","0.00"
"04:44:56","51.7","46.7","83","29.88","315","1","4.8","0.01","0.00"
"04:49:59","51.6","46.6","83","29.88","319","2.8","9.6","0.01","0.00"
"04:54:57","51.6","46.6","83","29.88","343","1.6","7.2","0.01","0.00"
"04:59:59","51.6","46.6","83","29.89","337","1.5","6.9","0.01","0.00"
"05:04:57","51.6","46.7","83.2","29.89","335","1.6","4.8","0.01","0.00"
"05:09:57","51.6","46.7","83.3","29.89","269","1.2","3.6","0.01","0.00"
"05:14:56","51.6","46.8","83.9","29.89","343","2.2","6","0.01","0.00"
"05:19:59","51.5","46.8","83.9","29.89","332","2","6","0.01","0.00"
"05:24:57","51.6","46.9","84","29.89","316","1.7","4.8","0.01","0.00"
"05:29:59","51.6","46.9","84","29.89","331","0.7","3.6","0.01","0.00"
"05:34:57","51.5","46.8","84","29.89","328","1.5","4.8","0.01","0.00"
"05:39:57","51.5","46.8","84","29.89","289","1.7","6","0.01","0.00"
"05:44:59","51.5","46.8","84","29.90","282","1.8","4.8","0.01","0.00"
"05:49:58","51.5","46.8","84","29.90","298","1.3","3.6","0.01","0.00"
"05:54:59","51.5","46.8","84","29.90","289","0.9","3.5","0.01","0.00"
"05:59:57","51.5","46.8","84","29.90","329","1.8","7.2","0.01","0.00"
"06:04:59","51.5","46.8","84","29.90","268","2","4.8","0.01","0.00"
"06:09:56","51.5","46.8","84","29.90","313","1.6","4.6","0.01","0.00"
"06:14:58","51.5","46.8","84","29.91","331","2.6","7.2","0.01","0.00"
"06:19:57","51.5","46.9","84.3","29.91","309","1.2","4.8","0.01","0.00"
"06:24:59","51.5","46.8","84","29.91","327","2.1","7.2","0.01","0.00"
"06:29:57","51.6","46.9","84","29.91","269","1.9","6.9","0.01","0.00"
"06:34:58","51.5","47","84.4","29.91","270","1.1","2.4","0.01","0.00"
"06:39:57","51.5","47.1","84.8","29.91","282","0.9","4.8","0.01","0.00"
"06:44:58","51.5","47.1","85","29.92","285","0.8","4.8","0.01","0.00"
"06:49:56","51.5","47.1","85","29.92","291","1.6","6","0.01","0.00"
"06:54:57","51.5","47.1","85","29.92","329","1.1","4.8","0.01","0.00"
"06:59:59","51.5","47.1","85","29.92","313","0.9","3.6","0.01","0.00"
"07:04:57","51.5","47.1","85","29.92","278","1.1","4.8","0.01","0.00"
"07:09:57","51.4","47","85","29.92","257","1","4.6","0.01","0.00"
"07:14:56","51.3","46.9","85","29.92","306","1.6","6","0.01","0.00"
"07:19:58","51.3","46.9","85","29.92","320","1.7","4.8","0.01","0.00"
"07:24:57","51.3","46.9","85","29.92","334","0.3","2.4","0.01","0.00"
"07:29:56","51.3","46.9","85","29.94","331","0.4","2.4","0.01","0.00"
"07:34:58","51.3","46.9","85","29.94","331","0.8","3.6","0.01","0.00"
"07:39:58","51.4","47.1","85.2","29.94","332","0.7","3.6","0.01","0.00"
"07:44:58","51.4","47.2","85.4","29.94","348","1.7","4.8","0.01","0.00"
"07:49:58","51.5","47.1","85","29.94","355","0.4","3.5","0.01","0.00"
"07:54:56","51.5","47.1","85","29.94","355","0","1.2","0.01","0.00"
"07:59:59","51.6","47.2","85","29.95","355","0.7","2.4","0.01","0.00"
"08:04:57","51.6","47.2","85","29.95","355","0.2","1.2","0.01","0.00"
"08:09:58","51.7","47.3","85","29.95","351","0.9","3.6","0.01","0.00"
"08:14:58","51.8","47.5","85.1","29.95","346","0.1","2.3","0.01","0.00"
"08:19:57","52","47.7","85.5","29.95","346","0.1","2.4","0.01","0.00"
"08:24:59","52","47.6","84.7","29.95","343","1.3","3.6","0.01","0.00"
"08:29:57","52.2","47.5","84","29.97","342","1.4","4.8","0.01","0.00"
"08:34:58","52.4","47.9","84.7","29.97","307","0.5","2.4","0.01","0.00"
"08:39:58","52.6","48","84.3","29.97","302","1.2","3.6","0.01","0.00"
"08:44:59","52.8","48.1","84","29.97","302","0.4","2.3","0.01","0.00"
"08:49:58","53","48.2","83.7","29.97","303","0.6","3.6","0.01","0.00"
"08:54:59","53.2","48.1","82.7","29.97","7","1.8","7.2","0.01","0.00"
"08:59:58","53.3","48.1","82.3","29.98","345","0.8","3.6","0.01","0.00"
"09:04:59","53.5","48.2","82.3","29.98","325","0.8","4.8","0.01","0.00"
"09:09:59","53.7","48.3","82","29.98","290","1.2","4.8","0.01","0.00"
"09:14:58","53.9","48.3","81.5","29.98","244","1.3","4.8","0.01","0.00"
"09:19:56","54.1","48.4","80.9","29.98","327","2.9","12","0.01","0.00"
"09:24:58","54.2","48.2","79.9","29.98","291","3.8","8.4","0.01","0.00"
"09:29:56","54.4","47.9","78.8","29.98","320","3.7","12","0.01","0.00"
"09:34:57","54.4","48.1","79.2","29.98","304","2.6","7.2","0.01","0.00"
"09:39:58","54.6","48.1","78.7","29.98","311","2.9","7.2","0.01","0.00"
"09:44:56","54.8","48.1","78.1","29.99","341","3.7","13.2","0.01","0.00"
"09:49:58","55","48.2","77.8","29.99","317","3.8","10.8","0.01","0.00"
"09:54:56","55.1","48.1","77.1","29.99","341","3","12","0.01","0.00"
"09:59:58","55.3","48.2","77.1","29.99","347","3.9","10.8","0.01","0.00"
"10:04:59","55.4","48.3","76.8","29.99","330","3.3","7.2","0.01","0.00"
"10:09:59","55.7","48.4","76.4","29.99","348","2","6.9","0.01","0.00"
"10:14:57","55.9","48.3","75.9","30.00","323","3.1","8.4","0.01","0.00"
"10:19:55","56.1","48.5","75.8","30.00","334","3.4","12","0.01","0.00"
"10:24:57","56.1","48.2","74.7","30.00","317","4.7","12","0.01","0.00"
"10:29:59","56.2","48.5","75.2","30.01","302","2.7","7.2","0.01","0.00"
"10:34:57","56.4","48.3","74.3","30.01","330","4.2","12","0.01","0.00"
"10:39:56","56.4","48.1","73.6","30.01","340","4.4","15","0.01","0.00"
"10:44:57","56.5","47.7","72.2","30.01","343","4.2","8.4","0.01","0.00"
"10:49:59","56.6","47.7","72","30.01","1","3.5","7.2","0.01","0.00"
"10:54:56","56.7","47.8","72.1","30.01","336","3.3","10.8","0.01","0.00"
"10:59:58","56.8","48","72.2","30.01","344","2.6","12","0.01","0.00"
"11:04:59","57.1","48.3","72.3","30.01","288","2.7","7.2","0.01","0.00"
"11:09:56","57.3","48.3","71.9","30.01","308","1.5","6","0.01","0.00"
"11:14:58","57.6","48.5","71.6","30.01","294","2.8","7.2","0.01","0.00"
"11:19:56","57.7","48.2","70.5","30.01","352","2.1","6.9","0.01","0.00"
"11:24:58","58","48.6","71","30.01","260","3","7.2","0.01","0.00"
"11:29:56","57.9","48.1","69.7","30.01","252","2.7","6.9","0.01","0.00"
"11:34:57","57.9","47.7","68.8","30.01","332","3.8","7.2","0.01","0.00"
"11:39:56","58.1","48.3","69.8","30.01","330","3","8.4","0.01","0.00"
"11:44:58","58.4","48.5","69.3","30.01","313","2.7","6.9","0.01","0.00"
"11:49:58","58.7","48.1","67.7","30.01","270","3.7","12","0.01","0.00"
"11:54:56","58.5","47.2","66","30.01","327","4","9.6","0.01","0.00"
"11:59:58","58.4","47.4","66.7","30.01","322","2.3","7.2","0.01","0.00"
"12:04:59","58.4","48","68.4","30.01","282","2.5","8.4","0.01","0.00"
"12:09:59","58.4","48","68.3","30.01","245","2.5","4.8","0.01","0.00"
"12:14:57","58.3","47.5","67.2","30.01","288","3.2","8.4","0.01","0.00"
"12:19:59","58.1","47.3","67.3","30.01","302","3.4","7.2","0.01","0.00"
"12:24:57","57.8","47","67.2","30.01","321","3.4","7.2","0.01","0.00"
"12:29:59","57.7","46.9","67.2","30.01","322","2.3","7.2","0.01","0.00"
"12:34:56","57.7","47.1","67.6","30.01","320","2.9","6","0.01","0.00"
"12:39:58","57.7","46.9","67.2","30.01","323","3.5","10.8","0.01","0.00"
"12:44:59","57.6","46.6","66.8","30.01","342","3","9.6","0.01","0.00"
"12:49:57","57.5","46.3","66.3","30.01","309","3.9","9.6","0.01","0.00"
"12:54:58","57.5","46.2","66","30.01","332","4.2","15","0.01","0.00"
"12:59:56","57.6","46.4","66.3","30.01","327","3.2","7.2","0.01","0.00"
"13:04:57","57.7","46.3","65.8","30.01","299","4.4","14.4","0.01","0.00"
"13:09:56","57.7","46.4","65.9","30.01","312","3.2","15","0.01","0.00"
"13:14:58","57.8","45.8","64.3","30.01","325","5.4","13.2","0.01","0.00"
"13:19:56","57.8","45.8","64.4","30.01","342","4.3","13.2","0.01","0.00"
"13:24:57","57.8","46","64.7","30.01","337","4.6","13.2","0.01","0.00"
"13:29:59","57.7","45.9","64.8","30.01","327","4.8","12","0.01","0.00"
"13:34:56","57.8","46.6","66.2","30.01","330","3.2","10.8","0.01","0.00"
"13:39:58","58","46.7","66.2","30.01","342","5","17.3","0.01","0.00"
"13:44:56","58","46.3","65.2","30.01","334","5.8","18.4","0.01","0.00"
"13:49:58","57.8","46","64.8","30.01","324","5.7","17.3","0.01","0.00"
"13:54:59","57.7","46.3","65.8","30.01","337","3","8.4","0.01","0.00"
"13:59:56","57.7","46.3","65.9","30.01","333","5","12","0.01","0.00"
"14:04:59","57.5","46.2","66","30.01","306","4.3","13.2","0.01","0.00"
"14:09:59","57.4","46.2","66.3","30.01","336","3.8","8.4","0.01","0.00"
"14:14:57","57.4","46.4","66.7","30.01","331","2.5","7.2","0.01","0.00"
"14:19:59","57.5","46.4","66.5","30.01","329","3.7","13.2","0.01","0.00"
"14:24:56","57.5","46.3","66.2","30.01","343","3.6","13.2","0.01","0.00"
"14:29:57","57.6","46.3","66.2","30.01","322","5","12","0.01","0.00"
"14:34:58","57.6","46.2","65.6","30.01","342","3.9","11.5","0.01","0.00"
"14:39:56","57.7","46.4","65.8","30.01","333","4.2","13.2","0.01","0.00"
"14:44:57","57.9","46.3","65.2","30.01","299","4.8","16.1","0.01","0.00"
"14:49:59","58","46","64.4","30.01","336","3.3","8.1","0.01","0.00"
"14:54:56","58.2","46.6","65.3","30.01","303","2.9","10.8","0.01","0.00"
"14:59:57","58.3","46.3","64.3","30.01","307","4.9","12","0.01","0.00"
"15:04:59","58.2","46.5","64.9","30.01","315","4.2","10.8","0.01","0.00"
"15:09:58","58.3","46.7","65.2","30.01","332","4.5","13.2","0.01","0.00"
"15:14:56","58.2","46.2","64.3","30.01","334","5.2","12","0.01","0.00"
"15:19:58","58.1","46.4","64.9","30.01","336","4.2","10.8","0.01","0.00"
"15:24:58","58.1","46.7","65.8","30.01","337","4.3","12","0.01","0.00"
"15:29:56","57.9","46.1","64.8","30.02","335","6.3","16.1","0.01","0.00"
"15:34:57","57.6","46.1","65.7","30.02","343","4","11.5","0.01","0.00"
"15:39:56","57.3","46.2","66.4","30.02","342","4.1","9.6","0.01","0.00"
"15:44:58","57.2","46.4","67.4","30.02","349","2.2","6","0.01","0.00"
"15:49:59","57.2","46.7","68.2","30.02","350","2","4.8","0.01","0.00"
"15:54:57","57.3","46.8","68.1","30.02","356","3.1","7.2","0.01","0.00"
"15:59:58","57.4","46.9","67.9","30.03","338","2.4","6.9","0.01","0.00"
"16:04:59","57.5","47","68","30.03","345","1","4.8","0.01","0.00"
"16:09:56","57.5","46.6","67","30.03","341","3.6","7.2","0.01","0.00"
"16:14:58","57.5","46.6","66.9","30.03","355","2.3","6","0.01","0.00"
"16:19:56","57.4","46.5","67","30.03","335","2.6","7.2","0.01","0.00"
"16:24:57","57.4","46.1","66.1","30.03","333","2.5","10.8","0.01","0.00"
"16:29:59","57.4","46","65.7","30.03","329","3.3","6","0.01","0.00"
"16:34:59","57.4","45.9","65.5","30.03","324","2.9","6","0.01","0.00"
"16:39:58","57.5","45.7","64.8","30.03","347","3.5","7.2","0.01","0.00"
"16:44:56","57.6","45.8","64.9","30.03","348","2.9","8.4","0.01","0.00"
"16:49:59","57.6","45.9","65.1","30.03","344","3.7","7.2","0.01","0.00"
"16:54:56","57.6","45.4","63.8","30.03","345","3.9","7.2","0.01","0.00"
"16:59:58","57.6","45.9","65.1","30.03","350","2.5","7.2","0.01","0.00"
"17:04:59","58.1","46.4","64.8","30.03","344","2.6","8.4","0.01","0.00"
"17:09:58","59.2","46.6","63","30.03","344","3","7.2","0.01","0.00"
"17:14:57","60.2","47.1","62","30.03","337","2.4","7.2","0.01","0.00"
"17:19:59","60.8","46.8","60.1","30.03","341","3.1","8.4","0.01","0.00"
"17:24:56","60.7","46.3","59","30.03","347","3.7","8.4","0.01","0.00"
"17:29:58","59.8","45.9","59.9","30.03","322","2.8","9.6","0.01","0.00"
"17:34:59","59","45.8","61.5","30.03","320","2","6","0.01","0.00"
"17:39:59","58.5","45.7","62.5","30.03","359","2.4","7.2","0.01","0.00"
"17:44:56","58.1","45.5","62.8","30.04","349","2.1","6","0.01","0.00"
"17:49:59","57.8","45.5","63.5","30.04","346","0.9","4.8","0.01","0.00"
"17:54:56","57.6","45.6","64.3","30.04","344","1.3","4.6","0.01","0.00"
"17:59:59","57.3","45.6","64.9","30.04","344","0.9","3.5","0.01","0.00"
"18:04:56","57.2","45.7","65.6","30.04","344","0.3","2.4","0.01","0.00"
"18:09:56","57","45.8","66.2","30.04","344","0.8","2.4","0.01","0.00"
"18:14:56","56.8","46","66.9","30.04","344","0.7","2.4","0.01","0.00"
"18:19:59","56.6","46.2","67.9","30.04","344","0.6","3.6","0.01","0.00"
"18:24:57","56.4","46.1","68.3","30.04","344","0.5","2.4","0.01","0.00"
"18:29:56","56.1","46.1","69.1","30.05","344","0.2","2.3","0.01","0.00"
"18:34:59","55.8","46.2","70","30.05","344","0","0","0.01","0.00"
"18:39:58","55.6","46.1","70.3","30.05","344","0","0","0.01","0.00"
"18:44:57","55.3","46.1","70.9","30.05","344","0","0","0.01","0.00"
"18:49:56","55.1","45.9","71","30.05","340","0.3","3.6","0.01","0.00"
"18:54:59","54.8","46","72.2","30.05","340","0.2","2.4","0.01","0.00"
"18:59:57","54.5","46","73","30.06","340","0.3","2.4","0.01","0.00"
"19:04:59","54.3","45.8","73.1","30.06","340","1.1","3.6","0.01","0.00"
"19:09:56","54.2","46.1","74","30.06","342","0.4","3.5","0.01","0.00"
"19:14:56","54.1","46","74","30.06","342","0.4","2.4","0.01","0.00"
"19:19:59","54.1","46.1","74.4","30.06","342","1","3.6","0.01","0.00"
"19:24:57","54.1","46.3","75","30.06","342","0.2","2.4","0.01","0.00"
"19:29:56","54","46.3","75","30.07","342","0.5","2.4","0.01","0.00"
"19:34:58","54","46.3","75","30.07","342","1.6","4.8","0.01","0.00"
"19:39:58","54.1","46.3","75","30.07","339","2.1","6","0.01","0.00"
"19:44:56","54.2","46.1","74","30.07","339","1.7","4.8","0.01","0.00"
"19:49:56","54.3","46.1","73.9","30.07","351","2.3","6","0.01","0.00"
"19:54:59","54.3","45.8","73","30.07","355","1.3","4.8","0.01","0.00"
"19:59:57","54.3","45.8","73","30.08","0","2.1","6","0.01","0.00"
"20:04:58","54.3","45.9","73.3","30.08","357","1.5","5.8","0.01","0.00"
"20:09:57","54.3","45.7","72.7","30.08","351","1.8","6","0.01","0.00"
"20:14:56","54.3","45.5","72.2","30.08","353","2.1","6","0.01","0.00"
"20:19:57","54.4","45.5","71.8","30.08","346","2.1","6","0.01","0.00"
"20:24:55","54.4","45.5","71.8","30.08","340","1.9","4.6","0.01","0.00"
"20:29:58","54.4","45.6","72.2","30.09","334","1.1","4.8","0.01","0.00"
"20:34:56","54.4","45.7","72.4","30.09","335","0.8","4.6","0.01","0.00"
"20:39:56","54.3","45.5","71.8","30.09","337","1.3","4.8","0.01","0.00"
"20:44:59","54.3","45.5","72","30.09","312","1.4","4.8","0.01","0.00"
"20:49:58","54.3","45.5","71.9","30.09","308","1.1","4.8","0.01","0.00"
"20:54:56","54.3","45.5","72","30.09","324","1.3","4.6","0.01","0.00"
"20:59:58","54.2","45.4","71.8","30.09","337","1.3","4.8","0.01","0.00"
"21:04:56","54.2","45.3","71.5","30.09","348","1.7","4.8","0.01","0.00"
"21:09:59","54.2","45.4","72","30.09","348","1.2","6","0.01","0.00"
"21:14:59","54.2","45.5","72.5","30.10","348","0.5","2.4","0.01","0.00"
"21:19:58","54","45.4","72.5","30.10","348","0.2","1.2","0.01","0.00"
"21:24:57","53.9","45.4","73","30.10","348","0.1","1.2","0.01","0.00"
"21:29:55","53.9","45.4","73.2","30.11","348","0","0","0.01","0.00"
"21:34:58","53.7","45.6","73.9","30.11","348","0","0","0.01","0.00"
"21:39:58","53.6","45.7","74.4","30.11","348","0","0","0.01","0.00"
"21:44:57","53.5","45.8","75","30.11","348","0","0","0.01","0.00"
"21:49:56","53.4","45.7","75","30.11","348","0","0","0.01","0.00"
"21:54:59","53.3","45.7","75.2","30.11","348","0.1","1.2","0.01","0.00"
"21:59:58","53.3","45.9","76","30.11","348","0.1","1.2","0.01","0.00"
"22:04:56","53.2","46","76.4","30.11","348","0","1.2","0.01","0.00"
"22:09:56","53.1","45.8","76.2","30.11","348","0","0","0.01","0.00"
"22:14:59","53","46","77","30.12","348","0","0","0.01","0.00"
"22:19:59","52.9","45.9","77","30.12","348","0","0","0.01","0.00"
"22:24:58","52.8","46.3","78.5","30.12","348","0","0","0.01","0.00"
"22:29:56","52.6","46.1","78.5","30.12","348","0","0","0.01","0.00"
"22:34:59","52.5","46.3","79.4","30.12","348","0","0","0.01","0.00"
"22:39:59","52.3","46.3","80","30.12","348","0","0","0.01","0.00"
"22:44:57","52.2","46.2","80","30.12","348","0","0","0.01","0.00"
"22:49:56","52.1","46.1","80","30.12","348","0","0","0.01","0.00"
"22:54:58","52","45.9","79.8","30.12","348","0","0","0.01","0.00"
"22:59:57","51.9","45.8","79.6","30.12","348","0","0","0.01","0.00"
"23:04:59","51.9","46.3","81","30.12","348","0","0","0.01","0.00"
"23:09:56","51.8","46.2","81","30.12","348","0","0","0.01","0.00"
"23:14:59","51.7","46","80.7","30.12","348","0","0","0.01","0.00"
"23:19:58","51.6","45.8","80.6","30.12","348","0","0","0.01","0.00"
"23:24:57","51.5","46","81.5","30.12","348","0","0","0.01","0.00"
"23:29:56","51.3","46","82","30.12","348","0","0","0.01","0.00"
"23:34:58","51.2","45.9","82","30.12","348","0","0","0.01","0.00"
"23:39:58","51","45.7","82","30.12","348","0","0","0.01","0.00"
"23:44:57","50.9","45.6","82.1","30.12","348","0","0","0.01","0.00"
